Overview Statistics Trail Chart Weather Telemetry Raw packets
 

This is the latest recevied weather packets stored in our database for station/object KC9NPJ-13. If no packets are shown the sender has not sent any weather packets the latest 10 day(s).

<< 8 9 10 11 12 13 14 >>
Time Temp. Humidity Pressure Rain* Wind** Luminosity Snow
1788556515 38.89° C 41% 1013 hPa 0 mm - - -
1788556215 38.33° C 43% 1013.1 hPa 0 mm - - -
1788555915 38.33° C 42% 1013.1 hPa 0 mm - - -
1788555615 38.33° C 41% 1013.1 hPa 0 mm - - -
1788555315 38.33° C 43% 1013.2 hPa 0 mm - - -
1788555015 37.78° C 45% 1013.2 hPa 0 mm - - -
1788554715 38.33° C 41% 1013.3 hPa 0 mm - - -
1788554416 38.89° C 42% 1013.4 hPa 0 mm - - -
1788554115 38.89° C 43% 1013.5 hPa 0 mm - - -
1788553815 38.89° C 42% 1013.5 hPa 0 mm - - -
1788553515 38.89° C 42% 1013.6 hPa 0 mm - - -
1788553215 39.44° C 41% 1013.7 hPa 0 mm - - -
1788552915 38.89° C 44% 1013.8 hPa 0 mm - - -
1788552615 38.33° C 44% 1013.9 hPa 0 mm - - -
1788552315 38.33° C 45% 1014 hPa 0 mm - - -
1788552015 37.78° C 45% 1014 hPa 0 mm - - -
1788551715 37.22° C 46% 1014.1 hPa 0 mm - - -
1788551415 36.67° C 47% 1014.3 hPa 0 mm - - -
1788551115 36.11° C 48% 1014.3 hPa 0 mm - - -
1788550815 35.56° C 50% 1014.3 hPa 0 mm - - -
1788550515 35.56° C 51% 1014.1 hPa 0 mm - - -
1788550215 35.56° C 50% 1014.4 hPa 0 mm - - -
1788549915 35.56° C 48% 1014.4 hPa 0 mm - - -
1788549616 35.56° C 50% 1014.5 hPa 0 mm - - -
1788549316 35.56° C 49% 1014.6 hPa 0 mm - - -

* Rain latest hour (hover to see other rain measurements)
** Current wind speed in m/s (hover to see current wind gust speed)